VNREDSAT 1

Last updated on Sun Nov 16 2025 00:03:20 GMT+0000 (Coordinated Universal Time)

1 39160U 13021B 25319.50432433 .00001499 00000+0 28921-3 0 9997 2 39160 97.9412 15.7292 0001536 89.0311 271.1069 14.64863077669009
UTC large
Height (km)
Speed (km/s)
/
Latitude / Longitude
Inclination (degrees)
Orbital Period (minutes)
Azimuth
Elevation
Range (km)
Doppler Factor

Next 0 passes for location: London (51.5072 / 0.1276)

Sorry there are no passes over London.